Weather History for EHRD - August, 2013

Change the Weather History Date:

Monday, August 5, 2013

  Actual Average (WUND) Record (WUND)
Temperature  
Mean Temperature 70 °F -  
Max Temperature 84 °F 69 °F - (-1)
Min Temperature 56 °F 54 °F - (-1)
Cooling Degree Days 5    
Growing Degree Days 20 (Base 50)    
Moisture  
Dew Point 58 °F    
Average Humidity 67    
Maximum Humidity 100    
Minimum Humidity 30    
Precipitation  
Precipitation 0.43 in - - ()
Sea Level Pressure  
Sea Level Pressure 29.96 in    
Wind  
Wind Speed 4 mph ()    
Max Wind Speed 14 mph    
Max Gust Speed -    
Visibility 7.3 miles    
Events Rain , Thunderstorm    
Averages and records for this station are not official NWS values.
T = Trace of Precipitation, MM = Missing Value Source: Averaged Metar Reports

Daily Weather History Graph

Daily Weather History Graph

Search for Another Location

Airport or City:

Trip Planner

Search our weather history database for the weather conditions in past years. The results will help you decide how hot, cold, wet, or windy it might be!

Date:

Astronomy

Aug. 05, 2013 Rise Set
Actual Time 6:10 AM CEST 9:24 PM CEST
Civil Twilight 5:30 AM CEST 10:04 PM CEST
Nautical Twilight 4:36 AM CEST 10:57 PM CEST
Astronomical Twilight 3:23 AM CEST 12:08 AM CEST
Moon 4:51 AM CEST (8/5) 8:11 PM CEST (8/5)
Length of Visible Light 16h 34m
Length of Day
15h 14m
Waning Crescent, 2% of the Moon is Illuminated
Aug 5
Waning Crescent
Aug 6
New
Aug 14
First Quarter
Aug 21
Full
Aug 28
Last Quarter

Hourly Weather History & Observations

Time (CEST) Temp. Heat Index Dew Point Humidity Pressure Visibility Wind Dir Wind Speed Gust Speed Precip Events Conditions
12:25 AM 60.8 °F - 57.2 °F 88% 30.09 in 6.2 mi Variable 1.2 mph - N/A   Unknown
12:55 AM 59.0 °F - 57.2 °F 94% 30.09 in 6.2 mi West 2.3 mph - N/A   Unknown
1:25 AM 59.0 °F - 57.2 °F 94% 30.09 in 6.2 mi West 2.3 mph - N/A   Unknown
1:55 AM 59.0 °F - 57.2 °F 94% 30.09 in 6.2 mi WNW 2.3 mph - N/A   Unknown
2:00 AM 59 °F - 56 °F 88% 30.10 in 19 mi WNW 2.2 mph - -   Partly Cloudy
2:25 AM 57.2 °F - 57.2 °F 100% 30.09 in 6.2 mi Variable 2.3 mph - N/A   Unknown
2:55 AM 59.0 °F - 55.4 °F 88% 30.06 in 6.2 mi Calm Calm - N/A   Unknown
3:25 AM 59.0 °F - 55.4 °F 88% 30.06 in 6.2 mi East 2.3 mph - N/A   Unknown
3:55 AM 59.0 °F - 55.4 °F 88% 30.06 in 6.2 mi SSE 1.2 mph - N/A   Unknown
4:25 AM 57.2 °F - 55.4 °F 94% 30.06 in 6.2 mi Calm Calm - N/A   Unknown
4:55 AM 57.2 °F - 55.4 °F 94% 30.04 in 6.2 mi Calm Calm - N/A   Unknown
5:00 AM 57 °F - 55 °F 92% 30.05 in 22 mi East 2.2 mph - -   Overcast
5:25 AM 57.2 °F - 57.2 °F 100% 30.04 in 6.2 mi ESE 1.2 mph - N/A   Unknown
5:55 AM 57.2 °F - 55.4 °F 94% 30.04 in 6.2 mi SSE 1.2 mph - N/A   Unknown
6:25 AM 59.0 °F - 57.2 °F 94% 30.04 in 6.2 mi Variable 1.2 mph - N/A   Unknown
6:55 AM 59.0 °F - 57.2 °F 94% 30.04 in 6.2 mi Calm Calm - N/A   Unknown
7:25 AM 60.8 °F - 57.2 °F 88% 30.01 in 6.2 mi Variable 2.3 mph - N/A   Unknown
7:55 AM 66.2 °F - 59.0 °F 78% 30.01 in 6.2 mi Variable 1.2 mph - N/A   Unknown
8:00 AM 68 °F - 59 °F 64% 30.03 in 19 mi East 2.2 mph - -   Partly Cloudy
8:25 AM 68.0 °F - 57.2 °F 68% 30.01 in 6.2 mi ESE 4.6 mph - N/A   Unknown
8:55 AM 69.8 °F - 59.0 °F 68% 30.01 in 6.2 mi ESE 5.8 mph - N/A   Unknown
9:25 AM 71.6 °F - 59.0 °F 64% 29.98 in 6.2 mi ESE 6.9 mph - N/A   Unknown
9:55 AM 73.4 °F - 59.0 °F 61% 29.98 in 6.2 mi ESE 4.6 mph - N/A   Unknown
10:25 AM 75.2 °F - 57.2 °F 53% 29.98 in 6.2 mi SE 4.6 mph - N/A   Unknown
10:55 AM 77.0 °F - 55.4 °F 47% 29.98 in 6.2 mi SSE 6.9 mph - N/A   Unknown
11:00 AM 77 °F - 55 °F 37% 29.99 in 19 mi SE 4.5 mph - -  
11:25 AM 78.8 °F - 53.6 °F 42% 29.98 in 6.2 mi SSE 9.2 mph - N/A   Unknown
11:55 AM 78.8 °F - 55.4 °F 44% 29.95 in 6.2 mi SSE 9.2 mph - N/A   Unknown
12:25 PM 80.6 °F 80.8 °F 57.2 °F 45% 29.95 in 6.2 mi South 9.2 mph - N/A   Unknown
12:55 PM 80.6 °F 80.5 °F 55.4 °F 42% 29.95 in 6.2 mi South 10.4 mph - N/A   Unknown
1:25 PM 82.4 °F 82.0 °F 57.2 °F 42% 29.95 in 6.2 mi SSW 10.4 mph - N/A   Unknown
1:55 PM 82.4 °F 81.7 °F 55.4 °F 39% 29.95 in 6.2 mi SSW 13.8 mph - N/A   Unknown
2:00 PM 82 °F - 55 °F 30% 29.95 in 19 mi SSW 13.4 mph - -   Partly Cloudy
2:25 PM 82.4 °F 82.0 °F 57.2 °F 42% 29.92 in 6.2 mi South 13.8 mph - N/A   Unknown
2:55 PM 82.4 °F 82.0 °F 57.2 °F 42% 29.92 in 6.2 mi South 13.8 mph - N/A   Unknown
3:25 PM 82.4 °F 82.5 °F 59.0 °F 45% 29.92 in 6.2 mi South 11.5 mph - N/A   Unknown
3:55 PM 82.4 °F 82.5 °F 59.0 °F 45% 29.89 in 6.2 mi SSW 11.5 mph - N/A   Unknown
4:25 PM 82.4 °F 82.5 °F 59.0 °F 45% 29.89 in 6.2 mi South 10.4 mph - N/A   Unknown
4:55 PM 82.4 °F 82.5 °F 59.0 °F 45% 29.89 in 6.2 mi SSW 9.2 mph - N/A   Unknown
5:00 PM 83 °F - 60 °F 35% 29.89 in 16 mi SSW 11.2 mph - -   Partly Cloudy
5:25 PM 82.4 °F 82.5 °F 59.0 °F 45% 29.86 in 6.2 mi SSW 10.4 mph - N/A   Unknown
5:55 PM 80.6 °F 81.1 °F 59.0 °F 48% 29.86 in 6.2 mi SW 9.2 mph - N/A   Unknown
6:25 PM 77.0 °F - 60.8 °F 57% 29.86 in 6.2 mi WNW 5.8 mph - N/A   Unknown
6:55 PM 75.2 °F - 60.8 °F 61% 29.86 in 6.2 mi NW 3.5 mph - N/A   Unknown
7:25 PM 73.4 °F - 60.8 °F 65% 29.86 in 6.2 mi NNW 3.5 mph - N/A   Unknown
7:55 PM 71.6 °F - 59.0 °F 64% 29.83 in 6.2 mi North 4.6 mph - N/A   Scattered Clouds
8:00 PM 70 °F - 60 °F 62% 29.85 in 22 mi NE 6.7 mph - - Rain Rain
8:25 PM 69.8 °F - 59.0 °F 68% 29.83 in 6.2 mi NE 4.6 mph - N/A   Unknown
8:55 PM 71.6 °F - 59.0 °F 64% 29.83 in 6.2 mi NNE 4.6 mph - N/A   Partly Cloudy
9:25 PM 69.8 °F - 59.0 °F 68% 29.83 in 6.2 mi NE 3.5 mph - N/A   Unknown
9:55 PM 68.0 °F - 59.0 °F 73% 29.83 in 6.2 mi ENE 3.5 mph - N/A Rain Light Rain
10:25 PM 69.8 °F - 59.0 °F 68% 29.80 in 6.2 mi East 5.8 mph - N/A   Partly Cloudy
10:55 PM 69.8 °F - 60.8 °F 73% 29.80 in 6.2 mi East 4.6 mph - N/A Thunderstorm Thunderstorm
11:00 PM 71 °F - 60 °F 61% 29.84 in 22 mi ESE 6.7 mph - - Thunderstorm Light Thunderstorm
11:25 PM 64.4 °F - 64.4 °F 100% 29.86 in 3.7 mi WSW 11.5 mph - N/A Rain , Thunderstorm Heavy Thunderstorms and Rain
11:55 PM 66.2 °F - 64.4 °F 94% 29.86 in 6.2 mi South 8.1 mph - N/A   Partly Cloudy